sat.trackr.live / text

‹ back to catalog

STARLINK-32660

NORAD 62205 · 2024-229P

PAYLOAD ACTIVE UNKNOWN

§ Identity

Operator
Country
US
Launch date
2024-12-04
Launch site
AFETR
Launch vehicle
Mass (kg)
RCS (m²)

Purposes: comms

External: N2YO · Heavens-Above · Gunter

§ Orbital elements

Epoch: 2026-05-25T02:48:30.646368Z

Period
94.27 min
Inclination
42.9942°
Eccentricity
0.0000997
Mean motion
15.27588687 rev/d
Perigee alt
482.3 km
Apogee alt
483.7 km
Semi-major
6,861.2 km
B*
8.9687e-4
RAAN
184.9001°
Arg perigee
120.6808°
Mean anomaly
239.4142°
Rev number
8,241

§ Raw data

STARLINK-326601 62205U 24229P   26145.11702137  .00024506  00000+0  89687-3 0  99912 62205  42.9942 184.9001 0000997 120.6808 239.4142 15.27588687 82417

JSON: /api/v1/satellites/62205 · /tle

For live sub-satellite position, see the globe view (requires WebGL).

§ Visibility from observer

Set your observer location to see the next 7 days of passes ≥ 10°. The values pass through the URL so the page stays shareable.

No JS? Fill the form by hand. The geolocation button needs JavaScript.